Weather History for Houston Hull, TX

Change the Weather History Date:

Wednesday, December 18, 2013

  Actual Average Record
Temperature  
Mean Temperature 54 °F -  
Max Temperature 71 °F 62 °F 80 °F (2012)
Min Temperature 37 °F 43 °F 26 °F (1979)
Degree Days  
Heating Degree Days 11    
Growing Degree Days 4 (Base 50)    
Moisture  
Dew Point 47 °F    
Average Humidity 85    
Maximum Humidity 100    
Minimum Humidity 51    
Precipitation  
Precipitation 0.00 in - - ()
Sea Level Pressure  
Sea Level Pressure 30.26 in    
Wind  
Wind Speed 3 mph (SSE)    
Max Wind Speed 13 mph    
Max Gust Speed -    
Visibility 5 miles    
Events Fog    
Averages and records for this station are not official NWS values.
T = Trace of Precipitation, MM = Missing Value Source: NWS Daily Summary

Daily Weather History Graph

Daily Weather History Graph

Search for Another Location

Airport:

Trip Planner

Search our weather history database for the weather conditions in past years. The results will help you decide how hot, cold, wet, or windy it might be!

Date:

Astronomy

Dec. 18, 2013 Rise Set
Actual Time 7:12 AM CST 5:26 PM CST
Civil Twilight 6:45 AM CST 5:53 PM CST
Nautical Twilight 6:15 AM CST 6:22 PM CST
Astronomical Twilight 5:46 AM CST 6:52 PM CST
Moon 6:53 PM CST (12/18) 7:57 AM CST (12/18)
Length of Visible Light 11h 07m
Length of Day
10h 14m
Full, 98% of the Moon is Illuminated
Dec 18
Full
Dec 25
Last Quarter
Jan 1
New
Jan 7
First Quarter
Jan 15
Full

Hourly Weather History & Observations

Time (CST) Temp. Windchill Dew Point Humidity Pressure Visibility Wind Dir Wind Speed Gust Speed Precip Events Conditions
12:06 AM 44.6 °F 43.1 °F 42.8 °F 93% 30.29 in 0.5 mi SSW 3.5 mph - N/A Fog Fog
12:18 AM 44.6 °F - 42.8 °F 93% 30.29 in 0.2 mi Calm Calm - N/A Fog Fog
12:25 AM 44.6 °F - 42.8 °F 93% 30.29 in 0.5 mi Calm Calm - N/A Fog Fog
12:40 AM 42.8 °F - 42.8 °F 100% 30.29 in 0.2 mi Calm Calm - N/A Fog Fog
12:53 AM 42.1 °F - 41.0 °F 96% 30.30 in 0.2 mi Calm Calm - N/A Fog Fog
1:30 AM 41.0 °F - 41.0 °F 100% 30.29 in 0.2 mi Calm Calm - N/A Fog Fog
1:53 AM 41.0 °F - 39.9 °F 96% 30.29 in 0.2 mi Calm Calm - N/A Fog Fog
2:53 AM 39.9 °F - 39.0 °F 97% 30.29 in 0.2 mi Calm Calm - N/A Fog Fog
3:53 AM 39.0 °F - 37.9 °F 96% 30.29 in 0.2 mi Calm Calm - N/A Fog Fog
4:53 AM 39.0 °F - 37.9 °F 96% 30.29 in 0.2 mi Calm Calm - N/A Fog Fog
5:53 AM 37.9 °F - 37.0 °F 97% 30.29 in 0.2 mi Calm Calm - N/A Fog Fog
6:53 AM 37.9 °F - 37.0 °F 97% 30.30 in 0.2 mi Calm Calm - N/A Fog Fog
7:53 AM 39.0 °F - 37.9 °F 96% 30.31 in 0.2 mi Calm Calm - N/A Fog Fog
8:53 AM 46.9 °F - 45.0 °F 93% 30.32 in 0.2 mi Calm Calm - N/A Fog Fog
9:23 AM 51.8 °F - 50.0 °F 94% 30.32 in 0.5 mi Calm Calm - N/A Fog Fog
9:27 AM 51.8 °F - 50.0 °F 94% 30.32 in 1.0 mi Calm Calm - N/A   Mostly Cloudy
9:36 AM 51.8 °F - 51.8 °F 100% 30.32 in 2.5 mi Calm Calm - N/A   Scattered Clouds
9:43 AM 51.8 °F - 51.8 °F 100% 30.32 in 5.0 mi Calm Calm - N/A   Scattered Clouds
9:53 AM 54.0 °F - 53.1 °F 97% 30.33 in 7.0 mi Calm Calm - N/A   Clear
10:53 AM 64.0 °F - 51.1 °F 63% 30.32 in 10.0 mi SE 5.8 mph - N/A   Clear
11:53 AM 69.1 °F - 51.1 °F 53% 30.29 in 10.0 mi Variable 5.8 mph - N/A   Clear
12:53 PM 71.1 °F - 52.0 °F 51% 30.25 in 10.0 mi SSW 11.5 mph - N/A   Partly Cloudy
1:53 PM 70.0 °F - 52.0 °F 53% 30.22 in 10.0 mi South 10.4 mph - N/A   Scattered Clouds
2:53 PM 69.1 °F - 51.1 °F 53% 30.19 in 10.0 mi South 6.9 mph - N/A   Scattered Clouds
3:53 PM 69.1 °F - 53.1 °F 57% 30.18 in 10.0 mi SE 12.7 mph - N/A   Scattered Clouds
4:53 PM 66.0 °F - 54.0 °F 65% 30.17 in 10.0 mi SE 12.7 mph - N/A   Scattered Clouds
5:53 PM 62.1 °F - 53.1 °F 72% 30.17 in 10.0 mi SE 9.2 mph - N/A   Clear
6:53 PM 60.1 °F - 54.0 °F 80% 30.17 in 10.0 mi SE 9.2 mph - N/A   Clear
7:53 PM 59.0 °F - 54.0 °F 83% 30.17 in 10.0 mi SE 9.2 mph - N/A   Partly Cloudy
8:53 PM 57.0 °F - 53.1 °F 87% 30.17 in 10.0 mi SE 8.1 mph - N/A   Clear
9:53 PM 55.0 °F - 52.0 °F 89% 30.16 in 10.0 mi SSE 6.9 mph - N/A   Partly Cloudy
10:53 PM 54.0 °F - 51.1 °F 90% 30.14 in 10.0 mi SE 5.8 mph - N/A   Clear
11:53 PM 53.1 °F - 51.1 °F 93% 30.12 in 8.0 mi SE 4.6 mph - N/A   Clear